Theta_e
314 312 312 312 313 315 315 316 318 318 318 320 320 321 322 322 323 317 310 317 320 328 324 315 313 310 310 310 312 311 299 299 304 306 306 309 307 310 311 311 315 317 321 327 330
314 312 312 312 312 314 314 315 317 318 318 318 318 319 320 322 316 310 323 327 327 328 316 312 307 307 303 307 309 305 298 301 307 305 306 308 308 309 308 309 312 320 326 328 327
313 312 312 311 313 313 313 314 316 318 317 317 317 319 320 319 307 308 324 325 325 323 319 316 311 306 303 305 305 305 300 306 307 311 308 307 306 308 306 303 310 316 322 324 323
312 313 312 311 310 311 311 312 314 316 317 317 317 319 320 313 288 311 323 324 324 319 318 312 307 302 301 301 306 300 305 308 308 309 307 305 306 304 306 304 314 320 325 323 322
312 312 312 311 310 310 311 311 312 315 316 317 317 318 314 304 303 314 322 320 316 313 313 309 303 303 299 302 305 301 303 306 306 306 305 308 305 305 304 309 316 322 323 322 323
314 312 312 311 310 309 310 311 312 313 315 316 316 318 307 296 311 315 315 316 314 310 309 310 304 303 301 301 301 302 303 304 305 304 305 304 303 305 304 309 311 314 316 319 321
314 313 312 311 310 308 310 311 311 313 314 315 315 312 304 300 312 314 314 313 314 313 307 313 308 303 303 302 304 304 299 300 300 303 301 303 301 301 303 309 310 308 306 302 302
314 313 312 311 310 308 308 310 311 312 312 314 315 308 297 311 310 308 309 310 314 315 312 314 311 307 304 304 303 299 297 292 300 302 301 302 295 301 302 302 302 301 298 300 301
313 313 312 310 310 308 308 310 311 312 312 313 306 302 295 313 306 309 308 308 312 313 312 315 310 303 301 297 294 296 290 294 296 299 298 299 294 298 299 300 297 296 298 300 301
313 313 312 310 309 308 308 310 310 310 309 310 308 296 301 299 306 308 309 310 308 308 307 307 303 295 294 293 287 289 292 296 296 296 296 296 292 293 295 295 293 294 296 299 300
312 313 311 310 309 307 305 302 295 294 299 293 295 297 300 305 310 306 308 307 307 302 297 302 293 289 292 294 297 296 294 294 299 302 295 292 291 292 294 294 293 294 296 297 299
312 312 311 310 308 306 303 296 296 297 289 299 299 298 302 304 298 303 309 301 300 293 296 296 291 295 298 298 297 297 293 292 295 300 298 293 290 294 295 294 294 294 294 295 297
312 312 312 310 307 303 300 300 305 302 290 293 297 296 298 302 297 298 303 301 297 293 293 289 294 300 297 296 295 295 294 292 290 294 296 295 292 292 293 294 296 295 296 296 296
312 312 311 309 300 299 295 304 304 302 282 286 291 295 299 300 294 302 305 300 296 292 292 290 294 295 295 294 296 292 298 294 292 291 285 295 285 290 291 291 291 292 292 293 294
312 311 310 307 297 296 301 304 303 296 262 286 291 303 300 295 295 297 305 300 292 293 292 288 290 289 292 294 298 294 299 295 294 290 288 288 286 289 290 288 289 290 292 293 294
311 310 308 303 298 298 303 303 296 275 266 282 291 290 291 294 294 298 298 301 299 294 294 291 295 291 292 295 298 299 297 295 293 291 284 287 286 284 285 287 288 291 291 292 293
309 308 305 303 296 302 301 293 272 273 284 276 285 289 289 288 290 292 291 290 287 282 283 291 291 294 294 291 298 296 291 282 280 280 280 288 287 283 285 288 289 289 290 291 292
307 305 303 302 301 300 298 283 269 274 276 286 286 287 286 288 288 289 288 287 291 289 284 283 282 290 293 291 291 292 290 281 275 277 278 288 281 281 288 290 290 290 290 291 291
307 298 296 297 301 298 291 276 271 278 284 281 282 279 282 287 287 287 286 286 290 290 284 283 285 292 293 294 294 290 287 291 283 278 278 282 280 285 287 287 287 287 288 289 290
296 295 294 298 298 293 281 275 279 285 285 285 279 281 276 283 282 283 283 287 288 292 294 288 282 290 291 293 293 290 292 283 284 277 275 277 277 278 282 283 285 285 285 287 290
294 287 296 298 294 283 274 278 282 286 288 284 281 281 283 282 284 283 284 286 290 290 293 290 287 286 289 286 286 286 285 287 286 282 277 274 277 284 284 285 284 284 286 287 288
291 277 296 296 278 281 280 277 286 285 289 287 286 285 283 285 284 284 280 287 290 291 288 291 287 282 284 289 290 290 287 287 279 279 281 280 277 286 286 285 285 285 286 287 289
283 284 295 292 274 268 273 278 285 283 284 284 283 285 286 284 282 284 285 290 289 289 287 290 284 278 281 285 288 287 289 289 288 284 280 276 275 285 286 285 285 285 286 287 288
286 274 281 284 281 277 268 270 276 286 284 286 284 285 285 283 285 283 285 289 291 287 292 291 283 280 274 278 283 283 286 288 286 277 279 278 278 282 283 284 284 285 286 286 286
284 279 282 275 274 276 278 273 270 274 284 285 282 283 283 281 280 279 286 287 289 291 289 287 276 278 278 280 285 283 285 287 285 285 279 280 280 283 284 284 284 285 285 285 285
281 278 282 275 281 278 280 277 279 277 280 279 279 281 282 277 280 278 282 282 284 287 287 287 279 279 275 278 283 282 285 284 284 285 283 282 280 288 287 284 283 285 285 285 285
286 286 284 280 280 277 276 279 281 282 284 284 283 281 279 280 283 285 286 284 283 283 282 281 278 271 267 273 274 272 276 282 283 284 284 280 284 284 282 283 283 283 285 285 285
Wind_Speed
7 7 8 9 8 7 9 10 10 6 4 5 7 8 9 11 11 4 3 3 4 9 10 8 6 7 5 3 2 4 3 2 3 1 5 3 3 4 3 9 5 5 5 10 7
7 7 8 8 7 6 8 11 12 7 5 6 7 9 10 11 3 4 3 6 8 10 5 7 7 10 5 3 2 3 3 3 4 3 4 4 4 4 5 6 6 8 11 11 9
6 5 6 7 7 6 8 10 11 10 7 6 7 8 10 8 2 2 2 4 6 5 3 5 4 4 2 3 3 3 4 2 6 4 3 0 5 3 5 4 6 11 11 7 10
5 5 6 5 6 6 7 8 9 11 10 8 7 8 10 3 5 3 2 4 6 3 4 3 3 2 2 3 4 1 3 3 2 2 2 2 3 6 6 2 5 12 14 8 8
5 5 5 5 5 5 6 8 8 10 10 8 6 6 4 2 5 4 2 6 6 3 3 2 2 1 2 3 4 2 1 2 4 5 4 3 7 5 5 7 10 13 11 11 8
6 4 5 4 5 5 6 7 7 8 9 7 5 4 2 3 3 5 4 2 3 3 4 3 2 2 3 4 2 0 3 2 1 2 3 3 3 4 3 6 8 9 7 7 6
8 5 4 4 4 5 6 7 6 7 7 6 5 2 3 8 2 4 5 2 4 3 4 5 0 2 4 3 6 2 2 3 1 1 2 1 4 3 3 6 10 10 11 16 14
9 6 4 4 4 5 6 7 6 8 8 5 5 3 4 6 10 7 6 5 5 4 3 6 4 0 2 4 4 3 3 3 4 5 2 4 2 4 2 5 10 12 12 14 15
9 7 5 4 4 5 6 8 7 8 8 7 2 2 5 1 5 6 6 4 3 3 3 4 2 3 2 5 3 5 5 4 1 6 3 3 4 9 10 12 13 10 12 13 14
9 8 6 4 4 4 6 8 5 5 5 4 3 2 5 4 4 4 6 5 2 3 1 3 2 4 2 6 14 7 7 15 5 6 6 5 9 9 10 17 10 10 12 14 15
11 8 6 6 4 3 4 3 2 1 1 6 1 3 4 7 1 2 4 5 1 2 6 5 4 9 9 2 5 6 7 9 7 2 7 12 10 8 7 13 12 11 12 12 12
11 10 8 7 3 2 1 1 2 1 5 9 5 5 5 5 3 4 4 7 6 5 5 3 9 5 5 7 6 4 7 5 4 14 6 3 9 8 11 7 8 9 10 10 10
12 10 9 7 2 2 3 4 3 2 2 2 3 4 4 4 4 6 9 5 5 8 9 5 2 12 7 8 12 6 7 6 9 9 9 4 2 4 5 10 12 11 9 9 9
12 11 10 6 3 1 3 1 2 2 2 4 3 6 4 3 5 7 8 5 3 10 7 6 6 10 8 8 10 14 6 6 15 7 5 6 3 5 6 7 8 8 8 8 8
12 11 9 3 3 4 2 5 4 4 4 4 2 3 2 6 2 4 4 5 7 6 6 6 7 5 5 6 9 4 16 5 11 6 5 6 4 4 13 8 8 6 7 7 7
13 9 7 3 4 0 3 5 4 6 7 4 3 3 5 8 4 2 2 2 3 3 1 6 3 7 7 2 5 8 12 9 8 3 4 6 5 4 6 13 9 8 8 7 7
13 12 4 2 2 2 3 3 7 3 4 7 3 5 5 6 4 4 2 7 5 5 5 4 5 2 4 7 10 17 14 3 3 4 3 7 3 1 3 8 14 12 9 7 6
12 12 7 3 2 2 2 5 2 5 3 2 4 8 4 2 7 4 6 3 6 3 4 5 5 6 3 6 9 15 6 6 7 7 4 7 8 6 3 7 9 10 9 8 7
9 2 3 3 2 3 2 2 5 3 5 6 8 2 2 2 2 4 5 3 3 6 3 6 0 3 2 2 7 7 9 4 5 2 5 4 3 3 5 7 7 8 8 7 6
1 3 2 2 4 3 3 4 2 1 3 3 2 2 3 2 2 4 4 2 2 3 3 2 4 1 1 2 2 5 9 5 2 6 3 3 5 5 12 11 9 9 8 7 6
2 4 3 3 4 6 3 1 2 3 5 3 3 4 3 2 4 3 4 0 2 5 4 7 1 4 4 2 5 3 4 2 4 4 5 5 4 6 16 15 13 8 8 7 7
2 4 4 3 6 1 2 2 3 3 4 2 3 3 3 3 1 3 3 3 1 4 2 3 3 4 4 3 2 2 4 5 5 3 2 3 3 2 12 11 11 9 7 7 8
2 2 3 5 3 2 4 2 2 2 4 3 2 1 3 2 2 3 3 2 6 5 2 2 2 3 4 2 4 3 2 3 5 4 2 6 4 3 11 11 8 9 7 7 7
3 3 5 5 1 5 2 4 3 5 3 4 4 1 3 3 5 3 3 3 7 2 7 1 5 2 4 3 3 5 3 1 4 4 4 3 9 7 12 12 9 7 7 7 7
3 1 2 1 4 2 3 3 3 5 4 6 4 8 4 2 3 3 2 4 5 10 5 3 5 3 2 5 4 3 6 5 3 4 5 8 16 16 13 12 9 8 7 8 7
4 4 2 3 1 1 2 3 1 4 3 3 5 9 10 6 5 4 2 3 1 3 3 2 2 1 8 10 7 7 5 8 4 4 7 10 2 5 6 8 7 8 7 7 7
2 1 5 2 2 3 2 3 1 1 3 5 1 4 8 4 1 6 6 5 4 1 2 3 6 3 2 5 6 6 3 2 3 2 8 7 6 8 9 10 8 8 8 8 7
Wind_Direction
325 334 348 346 332 342 345 354 348 333 349 350 340 336 332 331 318 299 317 353 346 355 332 299 319 346 342 280 247 16 46 41 71 208 240 174 88 27 82 95 43 31 90 116 117
316 322 342 351 335 349 346 351 351 344 341 338 335 337 329 330 309 253 9 1 6 8 9 6 335 343 332 269 275 111 101 238 167 129 302 124 120 130 97 104 53 78 77 100 98
304 312 333 347 356 344 342 348 350 349 341 332 331 336 325 324 326 114 324 1 4 344 265 282 281 270 295 335 247 198 204 346 330 350 13 131 71 48 111 26 179 159 138 134 130
286 285 308 325 338 343 350 334 345 342 340 330 334 328 324 308 209 154 210 351 335 288 288 294 265 241 236 272 254 338 294 267 261 39 45 44 84 59 59 133 134 136 138 135 147
272 274 281 299 325 325 331 333 334 343 333 317 317 320 328 221 249 169 70 9 333 312 242 242 261 242 257 305 323 205 298 61 129 51 44 43 84 101 110 110 102 127 139 149 158
237 258 272 286 304 319 321 328 321 335 338 321 315 332 291 214 263 103 59 18 332 322 315 228 209 323 256 254 100 339 328 251 74 70 44 79 70 88 152 139 108 115 124 125 138
234 226 247 264 278 317 325 320 317 327 335 326 320 284 274 238 146 123 59 341 300 326 321 330 329 106 1 276 158 39 47 42 63 123 20 35 47 86 152 126 116 91 74 72 65
213 218 211 242 256 298 308 328 301 320 310 305 303 288 248 242 250 286 295 299 263 263 261 281 29 156 188 308 115 122 74 112 286 139 24 78 45 2 330 140 118 93 79 71 55
205 194 217 231 230 285 306 317 298 294 286 292 305 219 258 271 198 241 184 240 323 227 263 285 62 197 210 160 107 178 164 262 359 40 108 88 125 6 6 78 77 85 80 74 60
199 180 201 223 224 288 301 301 292 306 270 270 261 300 276 228 197 209 198 210 223 175 212 172 190 180 204 170 191 180 153 184 199 359 19 100 70 19 20 69 59 64 76 74 65
189 175 183 189 221 298 337 341 17 345 257 198 252 266 2 343 50 206 174 176 233 191 172 202 163 214 178 225 139 149 150 142 184 237 12 85 69 40 29 62 63 57 65 65 64
174 167 175 179 207 278 355 24 78 187 312 228 236 285 281 282 296 234 191 168 170 169 209 157 223 208 198 196 225 172 148 155 108 161 102 142 76 57 51 57 72 75 67 68 65
161 155 156 166 176 42 95 60 146 344 286 282 171 236 224 215 252 227 170 202 167 173 200 169 213 189 208 199 204 203 166 169 134 121 102 78 33 27 39 56 67 59 69 62 62
139 146 146 148 73 139 47 35 29 35 324 238 245 262 211 181 253 223 186 161 242 190 174 214 258 181 202 226 194 209 121 123 138 125 171 140 200 163 126 75 62 61 59 60 58
129 137 132 110 164 71 336 346 358 54 34 288 192 183 298 186 285 200 174 219 194 198 153 213 172 173 191 210 174 177 134 112 90 98 123 174 148 178 142 142 120 87 78 69 63
120 123 123 68 57 313 334 344 48 48 254 308 264 240 164 229 269 134 135 51 185 257 254 183 187 156 186 86 118 103 102 49 62 71 207 192 136 174 181 151 129 111 91 79 69
97 75 71 58 108 337 23 51 45 252 284 310 330 356 279 194 222 118 204 180 180 149 176 147 162 154 148 104 110 116 134 129 131 191 190 184 122 86 91 133 135 131 119 103 91
99 90 61 80 109 30 25 51 119 239 297 317 297 305 244 186 220 143 146 204 246 262 132 158 194 174 187 171 168 160 170 141 162 173 154 120 167 182 157 109 117 120 120 109 103
123 61 56 356 53 34 81 139 199 322 326 327 314 303 302 306 244 129 165 144 263 206 198 163 83 27 92 82 155 157 210 112 78 16 100 140 116 46 154 132 125 126 116 123 116
119 94 46 340 72 66 85 135 270 315 298 255 293 177 230 227 185 125 182 345 272 326 37 190 130 258 325 76 27 164 158 142 107 167 142 177 176 190 176 168 158 140 138 132 122
53 61 272 33 67 51 80 128 284 275 280 286 319 288 309 220 198 95 36 35 10 312 320 152 19 146 100 20 161 120 149 107 121 141 141 142 229 190 175 167 158 153 146 138 132
82 70 289 87 56 326 97 185 271 292 278 249 246 279 305 338 101 91 118 40 177 341 137 223 103 85 113 270 260 267 143 130 129 227 46 92 276 71 153 145 141 147 142 138 134
94 173 328 85 95 323 310 293 237 293 287 313 253 249 288 308 139 96 90 86 115 350 131 332 117 79 107 16 356 78 46 114 104 77 183 129 229 86 125 135 144 145 146 135 138
77 39 340 42 72 128 111 307 324 320 293 310 359 135 285 23 36 105 96 151 151 150 344 279 62 186 151 167 150 159 161 93 112 101 162 179 148 167 154 150 147 148 146 142 134
48 201 200 25 340 18 116 168 10 354 324 4 42 357 311 69 50 65 117 122 12 165 44 40 79 59 50 349 115 116 132 128 92 124 140 170 171 182 171 156 157 151 146 143 142
135 127 47 155 283 60 45 349 126 293 33 358 77 20 32 78 32 47 296 22 142 348 99 96 118 9 26 1 65 93 97 99 88 93 69 135 124 134 132 117 134 155 162 168 161
272 23 101 292 309 84 238 193 340 339 15 58 272 84 49 60 17 352 38 50 63 104 89 79 131 90 311 345 1 26 248 121 123 108 142 161 194 143 144 152 160 165 177 183 165